Regional Weather Roundup
Issued by NWS

Home | Current Version | Previous Version | Text Only | Print | Product List | Glossary Off
Versions: 1 2 3 4 5 6 7 8 9 10 11 12 13 14 15 16 17 18 19 20 21 22 23 24 25 26 27 28 29 30 31 32 33 34 35 36 37 38 39 40 41 42 43 44 45 46 47 48 49 50

000
ASUS43 KOAX 300010
RWRNE
WEATHER ROUNDUP FOR NEBRASKA
NATIONAL WEATHER SERVICE OMAHA NE
700 PM CDT MON JUN 29 2015

NOTES: SATELLITE DATA IS BEING USED TO AUGMENT CLOUD COVER ABOVE
       12000 FEET.
       "FAIR" INDICATES FEW OR NO CLOUDS BELOW 12,000 FEET WITH NO
       SIGNIFICANT WEATHER AND/OR OBSTRUCTIONS TO VISIBILITY.

  * THESE STATIONS DO NOT REPORT WEATHER SUCH AS RAIN...SNOW OR FOG.

NEZ001>004-019>022-054>056-300100-
NEBRASKA PANHANDLE

CITY           SKY/WX    TMP DP  RH WIND       PRES   REMARKS
SCOTTSBLUFF    PTSUNNY   87  54  32 E13       30.08S
6HR MIN TEMP:  84; 6HR MAX TEMP:  93;

ALLIANCE       MOSUNNY   82  57  42 NE8       30.10R
6HR MIN TEMP:  81; 6HR MAX TEMP:  89;

CHADRON        PTSUNNY   82  68  62 NE3       30.06S
6HR MIN TEMP:  80; 6HR MAX TEMP:  91;

KIMBALL          N/A    N/A N/A N/A MISG        N/A
SIDNEY         SUNNY     87  52  29 VRB6      30.13S
6HR MIN TEMP:  77; 6HR MAX TEMP:  89;

$$

NEZ057>060-069>072-079>082-300100-
SOUTHWEST NEBRASKA

CITY           SKY/WX    TMP DP  RH WIND       PRES   REMARKS
NORTH PLATTE   SUNNY     87  61  41 SW5       30.00F
6HR MIN TEMP:  83; 6HR MAX TEMP:  93; 6HR PCP: TRACE;

IMPERIAL       SUNNY     90  55  30 VRB5      30.05F
6HR MIN TEMP:  83; 6HR MAX TEMP:  92;

LEXINGTON      SUNNY     91  55  29 NE6       29.99S
MCCOOK         SUNNY     93  53  25 N5        30.00S HX  90
6HR MIN TEMP:  87; 6HR MAX TEMP:  94;

OGALLALA       SUNNY     89  54  30 CALM      30.05S
$$

NEZ005>010-023>029-035>040-094-300100-
NORTH CENTRAL NEBRASKA

CITY           SKY/WX    TMP DP  RH WIND       PRES   REMARKS
VALENTINE      SUNNY     88  57  34 N8        30.00F
6HR MIN TEMP:  86; 6HR MAX TEMP:  90;

AINSWORTH      SUNNY     87  55  33 N9        30.01S
BROKEN BOW     SUNNY     88  60  38 N7        29.99F
6HR MIN TEMP:  85; 6HR MAX TEMP:  90;

O`NEILL        SUNNY     86  61  43 NE3       29.96F
ORD            SUNNY     88  58  36 N8        29.95F
6HR MIN TEMP:  84; 6HR MAX TEMP:  91;

THEDFORD       SUNNY     89  58  35 CALM      30.03S
$$

NEZ041-046>049-061>064-073>077-083>087-300100-
SOUTH CENTRAL NEBRASKA

CITY           SKY/WX    TMP DP  RH WIND       PRES   REMARKS
GRAND ISLAND   SUNNY     89  56  32 N6        29.96S
6HR MIN TEMP:  84; 6HR MAX TEMP:  90;

AURORA         SUNNY     86  57  37 N3        29.96S
HASTINGS       SUNNY     87  60  40 N8        29.97S
6HR MIN TEMP:  82; 6HR MAX TEMP:  88;

HEBRON         SUNNY     85  56  36 CALM      29.94S
HOLDREGE       SUNNY     87  59  39 NE7       29.99S
KEARNEY *      SUNNY     88  59  37 NE7       29.98S
YORK           SUNNY     84  61  45 N7        29.95S
$$

NEZ011>018-030>034-042>045-300100-
NORTHEAST NEBRASKA

CITY           SKY/WX    TMP DP  RH WIND       PRES   REMARKS
NORFOLK        SUNNY     84  61  45 NW6       29.94S
6HR MIN TEMP:  83; 6HR MAX TEMP:  86;

ALBION         SUNNY     84  58  40 NE7       29.96S
BLAIR          SUNNY     81  61  50 NW5       29.92S
COLUMBUS *     SUNNY    N/A N/A N/A MISG        N/A
FREMONT        SUNNY     83  57  40 N3        29.92S
TEKAMAH        SUNNY     83  63  50 NW6       29.90S
6HR MIN TEMP:  83; 6HR MAX TEMP:  88;

WAYNE          SUNNY     79  68  69 CALM      29.93F
$$

NEZ050>053-065>068-078-088>093-300100-
SOUTHEAST NEBRASKA

CITY           SKY/WX    TMP DP  RH WIND       PRES   REMARKS
LINCOLN        SUNNY     87  58  37 N8        29.93S HAZE
6HR MIN TEMP:  85; 6HR MAX TEMP:  89;

OMAHA EPPLEY   CLOUDY    83  63  50 NE6       29.90S
6HR MIN TEMP:  83; 6HR MAX TEMP:  87;

BEATRICE       SUNNY     84  60  45 NW6       29.92F
FALLS CITY     SUNNY     83  65  54 NW5       29.89F
6HR MIN TEMP:  83; 6HR MAX TEMP:  86;

NEBRASKA CITY  SUNNY     82  52  34 N6        29.91S
PLATTSMOUTH    SUNNY     82  59  46 NW5       29.91S
$$

NEZ044-045-051>053-067-300100-
OMAHA AREA

CITY           SKY/WX    TMP DP  RH WIND       PRES   REMARKS
OMAHA EPPLEY   CLOUDY    83  63  50 NE6       29.90S
6HR MIN TEMP:  83; 6HR MAX TEMP:  87;

BLAIR          SUNNY     81  61  50 NW5       29.92S
FREMONT        SUNNY     83  57  40 N3        29.92S
MILLARD        SUNNY     84  62  48 NW3       29.91R
OFFUTT AFB     SUNNY     82  64  53 N6        29.90S
PLATTSMOUTH    SUNNY     82  59  46 NW5       29.91S
WAHOO          FAIR      84  60  43 N7        29.92S
$$


USA.gov is the U.S. government's official web portal to all federal, state and local government web resources and services.